User: anonymous   Login
Location: Chèvreville
(49.1099°N, 2.8495°E)
Time: 18:49:34
(UTC+00:00)
Language:

APRIZESAT 10 - Orbit

View from above orbital plane
View from above orbital plane
View from above satellite
View from above satellite

Ground track
Ground track

The orbit data is extracted from the following two-line orbital elements,

1 40019U 14033K   24147.34035717  .00001518  00000-0  25522-3 0  9997
2 40019  97.8653 285.5739 0082296 153.6442 206.8986 14.68805235531971
Epoch (UTC): 26 May 2024 08:10:06
Eccentricity: 0.0082296
inclination: 97.8653°
perigee height: 607 km
apogee height: 723 km
right ascension of ascending node: 285.5739°
argument of perigee: 153.6442°
revolutions per day: 14.68805235
mean anomaly at epoch: 206.8986°
orbit number at epoch: 53197

The dashed part of the orbit path shows where the satellite is in the earth's shadow,  

DLR